Time,TemperatureF,DewpointF,PressureIn,WindDirection,WindDirectionDegrees,WindSpeedMPH,WindSpeedGustMPH,Humidity,HourlyPrecipIn,Conditions,Clouds,dailyrainin,SoftwareType,DateUTC
2013-04-09 00:00:00,41.9,38.6,31.01,North,357,0.0,0.0,88,0.00,,---,0.00,VWS V14.01,2013-04-09 07:00:00,
2013-04-09 00:05:00,41.9,38.6,31.01,North,357,0.0,0.0,88,0.00,,---,0.00,VWS V14.01,2013-04-09 07:05:00,
2013-04-09 00:10:00,42.1,38.8,31.01,North,358,0.0,0.0,88,0.00,,---,0.00,VWS V14.01,2013-04-09 07:10:00,
2013-04-09 00:15:00,42.1,38.8,31.01,North,357,0.0,0.0,88,0.00,,---,0.00,VWS V14.01,2013-04-09 07:15:00,
2013-04-09 00:20:00,41.7,38.4,31.01,North,357,0.0,0.0,88,0.00,,---,0.00,VWS V14.01,2013-04-09 07:20:00,
2013-04-09 00:25:00,41.5,38.3,31.01,North,357,0.0,0.0,88,0.00,,---,0.00,VWS V14.01,2013-04-09 07:25:00,
2013-04-09 00:30:00,41.2,37.9,31.01,North,357,0.0,0.0,88,0.00,,---,0.00,VWS V14.01,2013-04-09 07:30:00,
2013-04-09 00:35:00,40.8,37.5,31.01,North,357,0.0,0.0,88,0.00,,---,0.00,VWS V14.01,2013-04-09 07:35:00,
2013-04-09 00:40:00,40.5,36.9,31.01,North,357,0.0,0.0,87,0.00,,---,0.00,VWS V14.01,2013-04-09 07:40:00,
2013-04-09 00:45:00,39.9,36.4,31.01,North,357,0.0,0.0,87,0.00,,---,0.00,VWS V14.01,2013-04-09 07:45:00,
2013-04-09 00:50:00,39.7,36.2,31.01,North,357,0.0,0.0,87,0.00,,---,0.00,VWS V14.01,2013-04-09 07:50:00,
2013-04-09 00:55:00,39.7,36.5,31.01,North,357,0.0,0.0,88,0.00,,---,0.00,VWS V14.01,2013-04-09 07:55:00,
2013-04-09 01:00:00,39.6,36.3,31.01,North,357,0.0,0.0,88,0.00,,---,0.00,VWS V14.01,2013-04-09 08:00:00,
2013-04-09 01:05:00,39.2,36.0,31.01,North,357,0.0,0.0,88,0.00,,---,0.00,VWS V14.01,2013-04-09 08:05:00,
2013-04-09 01:10:00,39.0,36.1,31.01,North,357,0.0,0.0,89,0.00,,---,0.00,VWS V14.01,2013-04-09 08:10:00,
2013-04-09 01:15:00,38.7,35.4,31.01,North,357,0.0,0.0,88,0.00,,---,0.00,VWS V14.01,2013-04-09 08:15:00,
2013-04-09 01:20:00,38.5,35.2,31.01,North,357,0.0,0.0,88,0.00,,---,0.00,VWS V14.01,2013-04-09 08:20:00,
2013-04-09 01:25:00,38.1,35.2,31.01,North,357,0.0,0.0,89,0.00,,---,0.00,VWS V14.01,2013-04-09 08:25:00,
2013-04-09 01:30:00,38.1,35.2,31.01,North,357,0.0,0.0,89,0.00,,---,0.00,VWS V14.01,2013-04-09 08:30:00,
2013-04-09 01:35:00,38.1,35.2,31.01,North,357,0.0,0.0,89,0.00,,---,0.00,VWS V14.01,2013-04-09 08:35:00,
2013-04-09 01:40:00,38.1,35.2,31.01,North,357,0.0,0.0,89,0.00,,---,0.00,VWS V14.01,2013-04-09 08:40:00,
2013-04-09 01:45:00,38.1,35.5,31.01,North,357,0.0,0.0,90,0.00,,---,0.00,VWS V14.01,2013-04-09 08:45:00,
2013-04-09 01:50:00,38.3,35.9,31.01,North,357,0.0,0.0,91,0.00,,---,0.00,VWS V14.01,2013-04-09 08:50:00,
2013-04-09 01:55:00,38.5,36.1,31.01,North,357,0.0,0.0,91,0.00,,---,0.00,VWS V14.01,2013-04-09 08:55:00,
2013-04-09 02:00:00,38.5,36.4,31.01,North,357,0.0,0.0,92,0.00,,---,0.00,VWS V14.01,2013-04-09 09:00:00,
2013-04-09 02:05:00,38.5,36.4,30.86,North,357,0.0,0.0,92,0.00,,---,0.00,VWS V14.01,2013-04-09 09:05:00,
2013-04-09 02:10:00,38.5,36.4,30.86,North,357,0.0,0.0,92,0.00,,---,0.00,VWS V14.01,2013-04-09 09:10:00,
2013-04-09 02:15:00,38.5,36.4,30.06,North,357,0.0,0.0,92,0.00,,---,0.00,VWS V14.01,2013-04-09 09:15:00,
2013-04-09 02:20:00,38.7,36.3,30.06,North,357,0.0,0.0,91,0.00,,---,0.00,VWS V14.01,2013-04-09 09:20:00,
2013-04-09 02:25:00,38.7,36.3,30.06,North,357,0.0,0.0,91,0.00,,---,0.00,VWS V14.01,2013-04-09 09:25:00,
2013-04-09 02:30:00,38.8,36.4,29.85,North,357,0.0,0.0,91,0.00,,---,0.00,VWS V14.01,2013-04-09 09:30:00,
2013-04-09 02:35:00,39.0,36.9,29.85,North,357,0.0,0.0,92,0.00,,---,0.00,VWS V14.01,2013-04-09 09:35:00,
2013-04-09 02:40:00,39.0,36.6,29.85,North,357,0.0,0.0,91,0.00,,---,0.00,VWS V14.01,2013-04-09 09:40:00,
2013-04-09 02:45:00,39.2,36.8,29.91,North,357,0.0,0.0,91,0.00,,---,0.00,VWS V14.01,2013-04-09 09:45:00,
2013-04-09 02:50:00,39.2,36.8,29.91,North,357,0.0,0.0,91,0.00,,---,0.00,VWS V14.01,2013-04-09 09:50:00,
2013-04-09 02:55:00,39.4,37.0,29.91,North,357,0.0,0.0,91,0.00,,---,0.00,VWS V14.01,2013-04-09 09:55:00,
2013-04-09 03:00:00,39.4,37.2,29.91,North,357,0.0,0.0,92,0.00,,---,0.00,VWS V14.01,2013-04-09 10:00:00,
2013-04-09 03:05:00,39.4,37.2,29.91,North,357,0.0,0.0,92,0.00,,---,0.00,VWS V14.01,2013-04-09 10:05:00,
2013-04-09 03:10:00,39.4,37.2,29.62,North,357,0.0,0.0,92,0.00,,---,0.00,VWS V14.01,2013-04-09 10:10:00,
2013-04-09 03:15:00,39.4,37.5,29.62,North,357,0.0,0.0,93,0.00,,---,0.00,VWS V14.01,2013-04-09 10:15:00,
2013-04-09 03:20:00,39.4,37.5,29.62,North,357,0.0,0.0,93,0.00,,---,0.00,VWS V14.01,2013-04-09 10:20:00,
2013-04-09 03:25:00,39.6,37.7,29.41,North,358,0.0,0.0,93,0.00,,---,0.00,VWS V14.01,2013-04-09 10:25:00,
2013-04-09 03:30:00,39.6,37.7,29.41,North,357,0.0,0.0,93,0.00,,---,0.00,VWS V14.01,2013-04-09 10:30:00,
2013-04-09 03:35:00,39.6,37.7,29.29,North,357,0.0,0.0,93,0.00,,---,0.00,VWS V14.01,2013-04-09 10:35:00,
2013-04-09 03:40:00,39.7,37.9,29.29,North,358,0.0,0.0,93,0.00,,---,0.00,VWS V14.01,2013-04-09 10:40:00,
2013-04-09 03:45:00,39.7,37.9,29.12,North,357,0.0,0.0,93,0.00,,---,0.00,VWS V14.01,2013-04-09 10:45:00,
2013-04-09 03:50:00,39.7,37.9,29.12,North,357,0.0,0.0,93,0.00,,---,0.00,VWS V14.01,2013-04-09 10:50:00,
2013-04-09 03:55:00,39.9,38.1,29.12,North,358,0.0,0.0,93,0.00,,---,0.00,VWS V14.01,2013-04-09 10:55:00,
2013-04-09 04:00:00,39.9,38.1,28.97,North,357,0.0,0.0,93,0.00,,---,0.00,VWS V14.01,2013-04-09 11:00:00,
2013-04-09 04:05:00,39.9,38.1,28.97,North,357,0.0,0.0,93,0.00,,---,0.00,VWS V14.01,2013-04-09 11:05:00,
2013-04-09 04:10:00,39.7,37.9,28.97,North,357,0.0,0.0,93,0.00,,---,0.00,VWS V14.01,2013-04-09 11:10:00,
2013-04-09 04:15:00,39.7,37.9,28.97,North,357,0.0,0.0,93,0.00,,---,0.00,VWS V14.01,2013-04-09 11:15:00,
2013-04-09 04:20:00,39.7,37.9,28.88,North,357,0.0,0.0,93,0.00,,---,0.00,VWS V14.01,2013-04-09 11:20:00,
2013-04-09 04:25:00,39.9,38.1,28.88,North,358,0.0,0.0,93,0.00,,---,0.00,VWS V14.01,2013-04-09 11:25:00,
2013-04-09 04:30:00,39.7,37.9,28.82,North,357,0.0,0.0,93,0.00,,---,0.00,VWS V14.01,2013-04-09 11:30:00,
2013-04-09 04:35:00,39.7,37.6,28.82,North,357,0.0,0.0,92,0.00,,---,0.00,VWS V14.01,2013-04-09 11:35:00,
2013-04-09 04:40:00,39.6,37.4,28.82,North,358,0.0,0.0,92,0.00,,---,0.00,VWS V14.01,2013-04-09 11:40:00,
2013-04-09 04:45:00,39.6,37.7,28.82,North,357,0.0,0.0,93,0.00,,---,0.00,VWS V14.01,2013-04-09 11:45:00,
2013-04-09 04:50:00,39.4,37.2,28.79,North,357,0.0,0.0,92,0.00,,---,0.00,VWS V14.01,2013-04-09 11:50:00,
2013-04-09 04:55:00,39.6,37.4,28.79,North,358,0.0,0.0,92,0.00,,---,0.00,VWS V14.01,2013-04-09 11:55:00,
2013-04-09 05:00:00,39.6,37.4,28.79,North,357,0.0,0.0,92,0.00,,---,0.00,VWS V14.01,2013-04-09 12:00:00,
2013-04-09 05:05:00,39.6,37.4,28.76,North,357,0.0,0.0,92,0.00,,---,0.00,VWS V14.01,2013-04-09 12:05:00,
2013-04-09 05:10:00,39.4,37.2,28.76,North,357,0.0,0.0,92,0.00,,---,0.00,VWS V14.01,2013-04-09 12:10:00,
2013-04-09 05:15:00,39.4,37.2,28.76,North,358,0.0,0.0,92,0.00,,---,0.00,VWS V14.01,2013-04-09 12:15:00,
2013-04-09 05:20:00,39.2,37.1,28.76,North,357,0.0,0.0,92,0.00,,---,0.00,VWS V14.01,2013-04-09 12:20:00,
2013-04-09 05:25:00,39.2,37.1,28.76,North,357,0.0,0.0,92,0.00,,---,0.00,VWS V14.01,2013-04-09 12:25:00,
2013-04-09 05:30:00,39.0,36.9,28.70,North,357,0.0,0.0,92,0.00,,---,0.00,VWS V14.01,2013-04-09 12:30:00,
2013-04-09 05:35:00,39.0,37.2,28.70,North,357,0.0,0.0,93,0.00,,---,0.00,VWS V14.01,2013-04-09 12:35:00,
2013-04-09 05:40:00,38.8,36.7,28.70,North,358,0.0,0.0,92,0.00,,---,0.00,VWS V14.01,2013-04-09 12:40:00,
2013-04-09 05:45:00,38.7,36.5,28.70,North,357,0.0,0.0,92,0.00,,---,0.00,VWS V14.01,2013-04-09 12:45:00,
2013-04-09 05:50:00,38.3,36.2,28.70,North,357,0.0,0.0,92,0.00,,---,0.00,VWS V14.01,2013-04-09 12:50:00,
2013-04-09 05:55:00,38.1,36.0,28.70,North,357,0.0,0.0,92,0.00,,---,0.00,VWS V14.01,2013-04-09 12:55:00,
2013-04-09 06:00:00,37.9,35.8,28.70,North,357,0.0,0.0,92,0.00,,---,0.00,VWS V14.01,2013-04-09 13:00:00,
2013-04-09 06:05:00,37.8,35.7,28.67,North,357,0.0,0.0,92,0.00,,---,0.00,VWS V14.01,2013-04-09 13:05:00,
2013-04-09 06:10:00,37.8,35.7,28.67,North,357,0.0,0.0,92,0.00,,---,0.00,VWS V14.01,2013-04-09 13:10:00,
2013-04-09 06:15:00,37.6,35.5,28.67,North,357,0.0,0.0,92,0.00,,---,0.00,VWS V14.01,2013-04-09 13:15:00,
2013-04-09 06:20:00,37.6,35.5,28.67,North,357,0.0,0.0,92,0.00,,---,0.00,VWS V14.01,2013-04-09 13:20:00,
2013-04-09 06:25:00,37.6,35.5,28.67,North,357,0.0,0.0,92,0.00,,---,0.00,VWS V14.01,2013-04-09 13:25:00,
2013-04-09 06:30:00,37.4,35.3,28.67,North,357,0.0,0.0,92,0.00,,---,0.00,VWS V14.01,2013-04-09 13:30:00,
2013-04-09 06:35:00,37.0,34.9,28.67,North,357,0.0,0.0,92,0.00,,---,0.00,VWS V14.01,2013-04-09 13:35:00,
2013-04-09 06:40:00,37.0,34.9,28.64,North,357,0.0,0.0,92,0.00,,---,0.00,VWS V14.01,2013-04-09 13:40:00,
2013-04-09 06:45:00,36.9,34.8,28.64,North,357,0.0,0.0,92,0.00,,---,0.00,VWS V14.01,2013-04-09 13:45:00,
2013-04-09 06:50:00,36.9,34.8,28.64,North,357,0.0,0.0,92,0.00,,---,0.00,VWS V14.01,2013-04-09 13:50:00,
2013-04-09 06:55:00,36.9,34.8,28.64,North,357,0.0,0.0,92,0.00,,---,0.00,VWS V14.01,2013-04-09 13:55:00,
2013-04-09 07:00:00,36.9,34.8,28.64,North,357,0.0,0.0,92,0.00,,---,0.00,VWS V14.01,2013-04-09 14:00:00,
2013-04-09 07:05:00,37.0,35.2,28.64,North,357,0.0,0.0,93,0.00,,---,0.00,VWS V14.01,2013-04-09 14:05:00,
2013-04-09 07:10:00,37.0,35.2,28.64,North,357,0.0,0.0,93,0.00,,---,0.00,VWS V14.01,2013-04-09 14:10:00,
2013-04-09 07:15:00,37.4,35.3,28.64,North,357,0.0,0.0,92,0.00,,---,0.00,VWS V14.01,2013-04-09 14:15:00,
2013-04-09 07:20:00,37.6,35.7,28.64,North,357,0.0,0.0,93,0.00,,---,0.00,VWS V14.01,2013-04-09 14:20:00,
2013-04-09 07:25:00,37.9,36.1,28.64,North,357,0.0,0.0,93,0.00,,---,0.00,VWS V14.01,2013-04-09 14:25:00,
2013-04-09 07:30:00,38.1,36.3,28.64,North,357,0.0,0.0,93,0.00,,---,0.00,VWS V14.01,2013-04-09 14:30:00,
2013-04-09 07:35:00,38.7,36.8,28.64,North,357,0.0,0.0,93,0.00,,---,0.00,VWS V14.01,2013-04-09 14:35:00,
2013-04-09 07:40:00,39.0,37.2,28.64,North,357,0.0,0.0,93,0.00,,---,0.00,VWS V14.01,2013-04-09 14:40:00,
2013-04-09 07:45:00,39.6,37.7,28.64,North,357,0.0,0.0,93,0.00,,---,0.00,VWS V14.01,2013-04-09 14:45:00,
2013-04-09 07:50:00,40.3,38.4,28.64,North,357,0.0,0.0,93,0.00,,---,0.00,VWS V14.01,2013-04-09 14:50:00,
2013-04-09 07:55:00,41.2,39.3,28.64,North,357,0.0,0.0,93,0.00,,---,0.00,VWS V14.01,2013-04-09 14:55:00,
2013-04-09 08:10:00,42.8,40.6,28.64,North,358,0.0,0.0,92,0.00,,---,0.00,VWS V14.01,2013-04-09 15:10:00,
2013-04-09 08:20:00,43.3,40.9,28.64,North,358,0.0,0.0,91,0.00,,---,0.00,VWS V14.01,2013-04-09 15:20:00,
2013-04-09 08:30:00,43.7,41.0,28.67,North,357,0.0,0.0,90,0.00,,---,0.00,VWS V14.01,2013-04-09 15:30:00,
2013-04-09 08:40:00,44.2,40.9,28.67,North,357,0.0,0.0,88,0.00,,---,0.00,VWS V14.01,2013-04-09 15:40:00,
2013-04-09 08:50:00,45.1,41.5,28.67,North,358,0.0,0.0,87,0.00,,---,0.00,VWS V14.01,2013-04-09 15:50:00,
2013-04-09 11:12:00,54.0,39.5,28.70,SE,130,0.0,0.0,58,0.00,,---,0.00,VWS V14.01,2013-04-09 18:12:00,
2013-04-09 11:17:00,54.1,38.3,28.70,SSW,211,2.7,6.3,55,0.00,,---,0.00,VWS V14.01,2013-04-09 18:17:00,
2013-04-09 11:22:00,54.7,39.8,28.70,South,169,2.2,4.0,57,0.00,,---,0.00,VWS V14.01,2013-04-09 18:22:00,
2013-04-09 11:27:00,55.4,39.5,28.70,SSE,150,6.3,6.3,55,0.00,,---,0.00,VWS V14.01,2013-04-09 18:27:00,
2013-04-09 11:32:00,55.9,38.6,28.70,SE,140,6.3,6.3,52,0.00,,---,0.00,VWS V14.01,2013-04-09 18:32:00,
2013-04-09 11:37:00,55.9,38.1,28.70,SW,220,2.7,5.8,51,0.00,,---,0.00,VWS V14.01,2013-04-09 18:37:00,
2013-04-09 11:42:00,56.3,39.4,28.70,SE,126,0.0,5.4,53,0.00,,---,0.00,VWS V14.01,2013-04-09 18:42:00,
2013-04-09 11:47:00,56.7,40.2,28.70,SSE,158,5.8,5.8,54,0.00,,---,0.00,VWS V14.01,2013-04-09 18:47:00,
2013-04-09 11:52:00,56.8,39.9,28.70,East,93,2.7,2.7,53,0.00,,---,0.00,VWS V14.01,2013-04-09 18:52:00,
2013-04-09 11:57:00,57.0,39.1,28.70,SE,127,2.7,3.1,51,0.00,,---,0.00,VWS V14.01,2013-04-09 18:57:00,
2013-04-09 12:02:00,56.3,37.9,28.70,South,175,3.1,5.8,50,0.00,,---,0.00,VWS V14.01,2013-04-09 19:02:00,
2013-04-09 12:07:00,55.9,38.1,28.70,South,173,4.9,6.3,51,0.00,,---,0.00,VWS V14.01,2013-04-09 19:07:00,
2013-04-09 12:12:00,55.8,37.9,28.70,South,169,0.0,6.3,51,0.00,,---,0.00,VWS V14.01,2013-04-09 19:12:00,
2013-04-09 12:17:00,55.8,37.9,28.70,SE,125,0.0,8.3,51,0.00,,---,0.00,VWS V14.01,2013-04-09 19:17:00,
2013-04-09 12:22:00,56.7,39.7,28.70,East,100,4.0,4.0,53,0.00,,---,0.00,VWS V14.01,2013-04-09 19:22:00,
2013-04-09 12:27:00,56.8,37.4,28.70,SSE,156,4.9,6.3,48,0.00,,---,0.00,VWS V14.01,2013-04-09 19:27:00,
2013-04-09 12:32:00,57.0,38.1,28.70,SSE,163,3.6,7.2,49,0.00,,---,0.00,VWS V14.01,2013-04-09 19:32:00,
2013-04-09 12:37:00,57.4,38.9,28.70,East,95,2.2,3.6,50,0.00,,---,0.00,VWS V14.01,2013-04-09 19:37:00,
2013-04-09 12:42:00,57.7,39.2,28.70,SSE,167,0.0,4.0,50,0.00,,---,0.00,VWS V14.01,2013-04-09 19:42:00,
2013-04-09 12:48:00,57.6,38.0,28.70,SSE,149,2.7,5.4,48,0.00,,---,0.00,VWS V14.01,2013-04-09 19:48:00,
2013-04-09 12:53:00,57.6,38.0,28.70,SE,145,5.4,6.3,48,0.00,,---,0.00,VWS V14.01,2013-04-09 19:53:00,
2013-04-09 12:58:00,57.7,38.2,28.70,SSE,168,0.0,4.9,48,0.00,,---,0.00,VWS V14.01,2013-04-09 19:58:00,
2013-04-09 13:03:00,57.6,37.5,28.70,SSE,164,2.2,5.4,47,0.00,,---,0.00,VWS V14.01,2013-04-09 20:03:00,
2013-04-09 13:08:00,57.7,37.7,28.70,SSW,194,2.2,4.9,47,0.00,,---,0.00,VWS V14.01,2013-04-09 20:08:00,
2013-04-09 13:13:00,58.1,38.0,28.67,South,175,4.9,6.3,47,0.00,,---,0.00,VWS V14.01,2013-04-09 20:13:00,
2013-04-09 13:18:00,58.1,38.0,28.67,South,172,0.0,0.0,47,0.00,,---,0.00,VWS V14.01,2013-04-09 20:18:00,
2013-04-09 13:23:00,57.6,37.0,28.67,South,185,4.5,5.4,46,0.00,,---,0.00,VWS V14.01,2013-04-09 20:23:00,
2013-04-09 13:28:00,56.8,36.8,28.67,SSW,197,5.8,5.8,47,0.00,,---,0.00,VWS V14.01,2013-04-09 20:28:00,
2013-04-09 13:33:00,56.5,37.0,28.67,SSW,205,2.7,4.9,48,0.00,,---,0.00,VWS V14.01,2013-04-09 20:33:00,
2013-04-09 13:38:00,56.3,37.9,28.67,SSW,206,4.0,5.4,50,0.00,,---,0.00,VWS V14.01,2013-04-09 20:38:00,
2013-04-09 13:43:00,56.5,38.1,28.67,SSE,160,2.7,5.8,50,0.00,,---,0.00,VWS V14.01,2013-04-09 20:43:00,
2013-04-09 13:48:00,56.3,37.4,28.67,South,176,2.7,6.3,49,0.00,,---,0.00,VWS V14.01,2013-04-09 20:48:00,
2013-04-09 13:53:00,56.5,37.6,28.67,South,183,3.1,4.9,49,0.00,,---,0.00,VWS V14.01,2013-04-09 20:53:00,
2013-04-09 13:58:00,56.5,37.6,28.70,SSE,160,2.7,5.4,49,0.00,,---,0.00,VWS V14.01,2013-04-09 20:58:00,
2013-04-09 14:03:00,56.5,38.1,28.70,South,178,0.0,4.0,50,0.00,,---,0.00,VWS V14.01,2013-04-09 21:03:00,
2013-04-09 14:08:00,56.3,38.4,28.70,South,184,0.0,0.0,51,0.00,,---,0.00,VWS V14.01,2013-04-09 21:08:00,
2013-04-09 14:13:00,56.3,37.9,28.67,South,190,2.2,4.0,50,0.00,,---,0.00,VWS V14.01,2013-04-09 21:13:00,
2013-04-09 14:18:00,56.8,38.9,28.67,SSE,165,0.0,0.0,51,0.00,,---,0.00,VWS V14.01,2013-04-09 21:18:00,
2013-04-09 14:23:00,57.6,38.0,28.67,SSW,197,5.4,5.4,48,0.00,,---,0.00,VWS V14.01,2013-04-09 21:23:00,
2013-04-09 14:28:00,57.7,38.7,28.67,South,189,4.9,4.9,49,0.00,,---,0.00,VWS V14.01,2013-04-09 21:28:00,
2013-04-09 14:33:00,58.1,39.1,28.67,SSW,211,5.8,5.8,49,0.00,,---,0.00,VWS V14.01,2013-04-09 21:33:00,
2013-04-09 14:38:00,58.3,38.7,28.67,South,190,0.0,4.9,48,0.00,,---,0.00,VWS V14.01,2013-04-09 21:38:00,
2013-04-09 14:43:00,58.3,37.0,28.70,South,190,0.0,0.0,45,0.00,,---,0.00,VWS V14.01,2013-04-09 21:43:00,
2013-04-09 14:48:00,58.1,38.0,28.70,South,190,0.0,0.0,47,0.00,,---,0.00,VWS V14.01,2013-04-09 21:48:00,
2013-04-09 14:53:00,57.7,37.7,28.70,SW,222,0.0,0.0,47,0.00,,---,0.00,VWS V14.01,2013-04-09 21:53:00,
2013-04-09 14:58:00,57.4,37.3,28.67,SW,222,2.2,3.6,47,0.00,,---,0.00,VWS V14.01,2013-04-09 21:58:00,
2013-04-09 15:03:00,57.4,37.9,28.67,SW,222,0.0,0.0,48,0.00,,---,0.00,VWS V14.01,2013-04-09 22:03:00,
2013-04-09 15:08:00,57.4,37.9,28.67,SW,222,0.0,0.0,48,0.00,,---,0.00,VWS V14.01,2013-04-09 22:08:00,
2013-04-09 15:13:00,57.4,37.3,28.67,SW,222,0.0,0.0,47,0.00,,---,0.00,VWS V14.01,2013-04-09 22:13:00,
2013-04-09 15:18:00,57.7,38.7,28.67,SW,222,0.0,0.0,49,0.00,,---,0.00,VWS V14.01,2013-04-09 22:18:00,
2013-04-09 15:23:00,58.1,39.1,28.67,South,180,0.0,3.6,49,0.00,,---,0.00,VWS V14.01,2013-04-09 22:23:00,
2013-04-09 15:28:00,58.5,39.4,28.67,South,183,0.0,4.0,49,0.00,,---,0.00,VWS V14.01,2013-04-09 22:28:00,
2013-04-09 15:33:00,58.5,39.4,28.67,SSW,208,0.0,3.6,49,0.00,,---,0.00,VWS V14.01,2013-04-09 22:33:00,
2013-04-09 15:45:00,58.5,38.9,28.67,SE,140,4.9,4.9,48,0.00,,---,0.00,VWS V14.01,2013-04-09 22:45:00,
2013-04-09 15:50:00,58.5,39.4,28.67,SSE,157,3.1,6.7,49,0.00,,---,0.00,VWS V14.01,2013-04-09 22:50:00,
2013-04-09 15:55:00,58.1,38.5,28.67,SSE,155,5.4,5.8,48,0.00,,---,0.00,VWS V14.01,2013-04-09 22:55:00,
2013-04-09 16:00:00,58.1,39.1,28.67,SSE,151,3.6,5.8,49,0.00,,---,0.00,VWS V14.01,2013-04-09 23:00:00,
2013-04-09 16:05:00,57.9,38.9,28.67,South,174,3.6,4.9,49,0.00,,---,0.00,VWS V14.01,2013-04-09 23:05:00,
2013-04-09 16:10:00,57.9,39.4,28.67,SSW,195,0.0,3.1,50,0.00,,---,0.00,VWS V14.01,2013-04-09 23:10:00,
2013-04-09 16:15:00,57.7,39.2,28.64,South,177,3.1,6.3,50,0.00,,---,0.00,VWS V14.01,2013-04-09 23:15:00,
2013-04-09 16:20:00,57.7,39.8,28.64,SSE,163,2.7,3.6,51,0.00,,---,0.00,VWS V14.01,2013-04-09 23:20:00,
2013-04-09 16:25:00,57.6,39.1,28.64,SSE,158,0.0,5.8,50,0.00,,---,0.00,VWS V14.01,2013-04-09 23:25:00,
2013-04-09 16:30:00,57.4,39.9,28.64,South,181,0.0,0.0,52,0.00,,---,0.00,VWS V14.01,2013-04-09 23:30:00,
2013-04-09 16:35:00,57.4,39.9,28.64,South,190,3.1,3.6,52,0.00,,---,0.00,VWS V14.01,2013-04-09 23:35:00,
2013-04-09 16:40:00,57.2,39.8,28.64,SSW,195,2.7,6.3,52,0.00,,---,0.00,VWS V14.01,2013-04-09 23:40:00,
2013-04-09 16:45:00,57.0,40.1,28.64,South,170,3.6,4.9,53,0.00,,---,0.00,VWS V14.01,2013-04-09 23:45:00,
2013-04-09 16:50:00,56.8,39.9,28.64,SSE,153,4.9,7.6,53,0.00,,---,0.00,VWS V14.01,2013-04-09 23:50:00,
2013-04-09 16:55:00,56.8,39.9,28.64,South,183,5.8,6.3,53,0.00,,---,0.00,VWS V14.01,2013-04-09 23:55:00,
2013-04-09 17:00:00,56.8,39.9,28.64,South,183,0.0,4.0,53,0.00,,---,0.00,VWS V14.01,2013-04-10 00:00:00,
2013-04-09 17:05:00,56.8,39.9,28.64,SSE,151,2.7,6.3,53,0.00,,---,0.00,VWS V14.01,2013-04-10 00:05:00,
2013-04-09 17:10:00,56.8,39.9,28.64,ESE,122,2.7,6.3,53,0.00,,---,0.00,VWS V14.01,2013-04-10 00:10:00,
2013-04-09 17:15:00,56.7,40.2,28.64,South,175,2.7,4.0,54,0.00,,---,0.00,VWS V14.01,2013-04-10 00:15:00,
2013-04-09 17:20:00,56.5,40.0,28.64,SSE,148,5.8,6.3,54,0.00,,---,0.00,VWS V14.01,2013-04-10 00:20:00,
2013-04-09 17:25:00,56.3,40.4,28.64,SSW,201,4.0,4.0,55,0.00,,---,0.00,VWS V14.01,2013-04-10 00:25:00,
2013-04-09 17:30:00,56.1,40.2,28.64,SSE,159,3.6,4.0,55,0.00,,---,0.00,VWS V14.01,2013-04-10 00:30:00,
2013-04-09 17:35:00,56.1,40.7,28.64,South,187,2.7,4.0,56,0.00,,---,0.00,VWS V14.01,2013-04-10 00:35:00,
2013-04-09 17:40:00,55.8,40.3,28.64,SSE,154,0.0,0.0,56,0.00,,---,0.00,VWS V14.01,2013-04-10 00:40:00,
2013-04-09 17:45:00,55.8,40.8,28.64,SSE,158,0.0,4.0,57,0.00,,---,0.00,VWS V14.01,2013-04-10 00:45:00,
2013-04-09 17:50:00,55.6,40.6,28.64,South,169,0.0,3.1,57,0.00,,---,0.00,VWS V14.01,2013-04-10 00:50:00,
2013-04-09 17:55:00,55.6,41.0,28.64,SSE,160,3.1,5.4,58,0.00,,---,0.00,VWS V14.01,2013-04-10 00:55:00,
2013-04-09 18:00:00,55.2,41.2,28.64,SSE,168,3.6,8.1,59,0.00,,---,0.00,VWS V14.01,2013-04-10 01:00:00,
2013-04-09 18:05:00,54.9,41.2,28.64,SE,141,3.6,6.3,60,0.00,,---,0.00,VWS V14.01,2013-04-10 01:05:00,
2013-04-09 18:10:00,54.7,41.1,28.64,SE,143,2.2,5.4,60,0.00,,---,0.00,VWS V14.01,2013-04-10 01:10:00,
2013-04-09 18:15:00,54.3,41.2,28.61,SSW,199,0.0,3.1,61,0.00,,---,0.00,VWS V14.01,2013-04-10 01:15:00,
2013-04-09 18:20:00,54.0,41.2,28.61,SSE,162,5.8,5.8,62,0.00,,---,0.00,VWS V14.01,2013-04-10 01:20:00,
2013-04-09 18:25:00,53.6,40.9,28.61,SSE,167,3.1,4.0,62,0.00,,---,0.00,VWS V14.01,2013-04-10 01:25:00,
2013-04-09 18:30:00,53.2,41.0,28.61,SSE,165,2.7,5.4,63,0.00,,---,0.00,VWS V14.01,2013-04-10 01:30:00,
2013-04-09 18:35:00,53.1,41.2,28.61,SSE,165,2.7,3.6,64,0.00,,---,0.00,VWS V14.01,2013-04-10 01:35:00,
2013-04-09 18:40:00,52.9,41.0,28.61,SSE,148,0.0,0.0,64,0.00,,---,0.00,VWS V14.01,2013-04-10 01:40:00,
2013-04-09 18:45:00,52.9,41.0,28.61,SSE,148,0.0,0.0,64,0.00,,---,0.00,VWS V14.01,2013-04-10 01:45:00,
2013-04-09 18:50:00,52.7,41.7,28.61,SSE,148,0.0,0.0,66,0.00,,---,0.00,VWS V14.01,2013-04-10 01:50:00,
2013-04-09 18:55:00,52.5,41.1,28.61,SSE,148,0.0,0.0,65,0.00,,---,0.00,VWS V14.01,2013-04-10 01:55:00,
2013-04-09 19:00:00,52.5,41.5,28.61,SSE,148,0.0,0.0,66,0.00,,---,0.00,VWS V14.01,2013-04-10 02:00:00,
2013-04-09 19:05:00,52.5,41.5,28.61,SSE,148,0.0,0.0,66,0.00,,---,0.00,VWS V14.01,2013-04-10 02:05:00,
2013-04-09 19:10:00,52.5,41.5,28.61,SSE,148,0.0,0.0,66,0.00,,---,0.00,VWS V14.01,2013-04-10 02:10:00,
2013-04-09 19:15:00,52.5,41.5,28.61,SSE,148,0.0,0.0,66,0.00,,---,0.00,VWS V14.01,2013-04-10 02:15:00,
2013-04-09 19:20:00,52.5,41.5,28.61,SSE,148,0.0,0.0,66,0.00,,---,0.00,VWS V14.01,2013-04-10 02:20:00,
2013-04-09 19:25:00,52.3,41.3,28.61,SSE,148,0.0,0.0,66,0.00,,---,0.00,VWS V14.01,2013-04-10 02:25:00,
2013-04-09 19:30:00,52.2,41.5,28.59,SSE,148,0.0,0.0,67,0.00,,---,0.00,VWS V14.01,2013-04-10 02:30:00,
2013-04-09 19:35:00,52.0,41.4,28.59,SSE,148,0.0,0.0,67,0.00,,---,0.00,VWS V14.01,2013-04-10 02:35:00,
2013-04-09 19:40:00,51.8,41.6,28.59,SSE,148,0.0,0.0,68,0.00,,---,0.00,VWS V14.01,2013-04-10 02:40:00,
2013-04-09 19:45:00,51.4,41.2,28.59,SSE,148,0.0,0.0,68,0.00,,---,0.00,VWS V14.01,2013-04-10 02:45:00,
2013-04-09 19:50:00,51.4,41.6,28.59,SSE,148,0.0,0.0,69,0.00,,---,0.00,VWS V14.01,2013-04-10 02:50:00,
2013-04-09 19:55:00,51.3,41.5,28.59,SSE,148,0.0,0.0,69,0.00,,---,0.00,VWS V14.01,2013-04-10 02:55:00,
2013-04-09 20:00:00,51.1,41.3,28.59,SSE,148,0.0,0.0,69,0.00,,---,0.00,VWS V14.01,2013-04-10 03:00:00,
2013-04-09 20:05:00,50.9,41.1,28.59,SSE,148,0.0,0.0,69,0.00,,---,0.00,VWS V14.01,2013-04-10 03:05:00,
2013-04-09 20:10:00,50.7,41.3,28.59,SSE,148,0.0,0.0,70,0.00,,---,0.00,VWS V14.01,2013-04-10 03:10:00,
2013-04-09 20:15:00,50.7,41.3,28.59,East,97,0.0,2.2,70,0.00,,---,0.00,VWS V14.01,2013-04-10 03:15:00,
2013-04-09 20:20:00,50.7,41.3,28.59,ESE,119,0.0,0.0,70,0.00,,---,0.00,VWS V14.01,2013-04-10 03:20:00,
2013-04-09 20:25:00,50.7,41.3,28.59,ESE,118,0.0,0.0,70,0.00,,---,0.00,VWS V14.01,2013-04-10 03:25:00,
2013-04-09 20:30:00,50.7,41.3,28.59,ESE,118,0.0,0.0,70,0.00,,---,0.00,VWS V14.01,2013-04-10 03:30:00,
2013-04-09 20:35:00,50.5,41.1,28.59,ESE,118,0.0,0.0,70,0.00,,---,0.00,VWS V14.01,2013-04-10 03:35:00,
2013-04-09 20:40:00,50.4,41.0,28.59,SSE,155,2.2,2.2,70,0.00,,---,0.00,VWS V14.01,2013-04-10 03:40:00,
2013-04-09 20:45:00,50.4,41.0,28.59,East,82,0.0,0.0,70,0.00,,---,0.00,VWS V14.01,2013-04-10 03:45:00,
2013-04-09 20:50:00,50.2,40.8,28.59,East,82,0.0,0.0,70,0.00,,---,0.00,VWS V14.01,2013-04-10 03:50:00,
2013-04-09 20:55:00,50.2,40.8,28.59,East,82,0.0,0.0,70,0.00,,---,0.00,VWS V14.01,2013-04-10 03:55:00,
2013-04-09 21:00:00,50.2,41.5,28.59,East,82,0.0,0.0,72,0.00,,---,0.00,VWS V14.01,2013-04-10 04:00:00,
2013-04-09 21:05:00,49.8,41.9,28.59,East,82,0.0,0.0,74,0.00,,---,0.00,VWS V14.01,2013-04-10 04:05:00,
2013-04-09 21:10:00,49.6,41.7,28.59,East,82,0.0,0.0,74,0.00,,---,0.00,VWS V14.01,2013-04-10 04:10:00,
2013-04-09 21:15:00,49.5,41.2,28.59,East,82,0.0,0.0,73,0.00,,---,0.00,VWS V14.01,2013-04-10 04:15:00,
2013-04-09 21:20:00,49.6,41.7,28.59,ENE,78,0.0,0.0,74,0.00,,---,0.00,VWS V14.01,2013-04-10 04:20:00,
2013-04-09 21:25:00,49.6,41.0,28.59,ENE,71,0.0,0.0,72,0.00,,---,0.00,VWS V14.01,2013-04-10 04:25:00,
2013-04-09 21:30:00,49.6,41.3,28.59,ENE,71,0.0,0.0,73,0.00,,---,0.00,VWS V14.01,2013-04-10 04:30:00,
2013-04-09 21:35:00,49.5,41.2,28.59,ENE,71,0.0,0.0,73,0.00,,---,0.00,VWS V14.01,2013-04-10 04:35:00,
2013-04-09 21:40:00,49.3,41.4,28.59,NNE,22,0.0,3.1,74,0.00,,---,0.00,VWS V14.01,2013-04-10 04:40:00,
2013-04-09 21:45:00,49.1,40.8,28.59,NE,38,0.0,2.7,73,0.00,,---,0.00,VWS V14.01,2013-04-10 04:45:00,
2013-04-09 21:50:00,48.9,39.6,28.59,NNE,30,0.0,0.0,70,0.00,,---,0.00,VWS V14.01,2013-04-10 04:50:00,
2013-04-09 21:55:00,48.9,39.6,28.59,NE,42,0.0,0.0,70,0.00,,---,0.00,VWS V14.01,2013-04-10 04:55:00,
2013-04-09 22:00:00,48.9,39.9,28.59,NE,42,0.0,0.0,71,0.00,,---,0.00,VWS V14.01,2013-04-10 05:00:00,
2013-04-09 22:05:00,48.7,40.1,28.59,NE,42,0.0,0.0,72,0.00,,---,0.00,VWS V14.01,2013-04-10 05:05:00,
2013-04-09 22:10:00,48.7,39.8,28.59,NE,42,0.0,0.0,71,0.00,,---,0.00,VWS V14.01,2013-04-10 05:10:00,
2013-04-09 22:15:00,48.9,39.9,28.59,NE,42,0.0,0.0,71,0.00,,---,0.00,VWS V14.01,2013-04-10 05:15:00,
2013-04-09 22:20:00,48.9,39.9,28.59,NE,42,0.0,0.0,71,0.00,,---,0.00,VWS V14.01,2013-04-10 05:20:00,
2013-04-09 22:25:00,48.7,39.8,28.59,NE,42,0.0,0.0,71,0.00,,---,0.00,VWS V14.01,2013-04-10 05:25:00,
2013-04-09 22:30:00,48.7,40.1,28.59,NE,42,0.0,0.0,72,0.00,,---,0.00,VWS V14.01,2013-04-10 05:30:00,
2013-04-09 22:35:00,48.7,39.4,28.59,NE,42,0.0,0.0,70,0.00,,---,0.00,VWS V14.01,2013-04-10 05:35:00,
2013-04-09 22:40:00,48.7,39.4,28.59,NE,42,0.0,0.0,70,0.00,,---,0.00,VWS V14.01,2013-04-10 05:40:00,
2013-04-09 22:45:00,48.7,39.8,28.59,NE,42,0.0,0.0,71,0.00,,---,0.00,VWS V14.01,2013-04-10 05:45:00,
2013-04-09 22:50:00,48.7,39.8,28.59,NE,42,0.0,0.0,71,0.00,,---,0.00,VWS V14.01,2013-04-10 05:50:00,
2013-04-09 22:55:00,48.6,39.6,28.59,NE,42,0.0,0.0,71,0.00,,---,0.00,VWS V14.01,2013-04-10 05:55:00,
2013-04-09 23:00:00,48.6,39.6,28.59,NE,42,0.0,0.0,71,0.00,,---,0.00,VWS V14.01,2013-04-10 06:00:00,
2013-04-09 23:05:00,48.6,39.6,28.59,NE,42,0.0,0.0,71,0.00,,---,0.00,VWS V14.01,2013-04-10 06:05:00,
2013-04-09 23:10:00,48.6,39.6,28.59,NE,42,0.0,0.0,71,0.00,,---,0.00,VWS V14.01,2013-04-10 06:10:00,
2013-04-09 23:15:00,48.7,39.8,28.59,NE,42,0.0,0.0,71,0.00,,---,0.00,VWS V14.01,2013-04-10 06:15:00,
2013-04-09 23:20:00,48.7,39.8,28.59,NE,42,0.0,0.0,71,0.00,,---,0.00,VWS V14.01,2013-04-10 06:20:00,
2013-04-09 23:25:00,48.6,40.0,28.59,NE,42,0.0,0.0,72,0.00,,---,0.00,VWS V14.01,2013-04-10 06:25:00,
2013-04-09 23:30:00,48.7,40.1,28.56,NE,42,0.0,0.0,72,0.00,,---,0.00,VWS V14.01,2013-04-10 06:30:00,
2013-04-09 23:35:00,48.7,40.1,28.56,NE,42,0.0,0.0,72,0.00,,---,0.00,VWS V14.01,2013-04-10 06:35:00,
2013-04-09 23:40:00,48.7,39.4,28.56,NE,42,2.2,2.2,70,0.00,,---,0.00,VWS V14.01,2013-04-10 06:40:00,
2013-04-09 23:45:00,48.7,39.4,28.56,NE,42,2.2,2.2,70,0.00,,---,0.00,VWS V14.01,2013-04-10 06:45:00,
2013-04-09 23:50:00,48.7,39.4,28.56,NE,42,0.0,0.0,70,0.00,,---,0.00,VWS V14.01,2013-04-10 06:50:00,
2013-04-09 23:55:00,48.6,38.9,28.56,NE,42,0.0,0.0,69,0.00,,---,0.00,VWS V14.01,2013-04-10 06:55:00,